Time,TemperatureF,DewpointF,PressureIn,WindDirection,WindDirectionDegrees,WindSpeedMPH,WindSpeedGustMPH,Humidity,HourlyPrecipIn,Conditions,Clouds,dailyrainin,SoftwareType,DateUTC
2013-02-05 00:00:00,55.0,51.5,29.97,South,175,0.0,0.0,88,0.00,,,0.00,VWS V14.01,2013-02-05 06:00:00,
2013-02-05 00:05:00,54.9,51.7,29.96,South,175,0.0,0.0,89,0.00,,,0.00,VWS V14.01,2013-02-05 06:05:00,
2013-02-05 00:10:00,54.9,51.7,29.97,South,175,0.0,0.0,89,0.00,,,0.00,VWS V14.01,2013-02-05 06:10:00,
2013-02-05 00:15:00,54.8,51.6,29.96,South,175,0.0,0.0,89,0.00,,,0.00,VWS V14.01,2013-02-05 06:15:00,
2013-02-05 00:20:00,54.8,51.6,29.96,South,175,0.0,0.0,89,0.00,,,0.00,VWS V14.01,2013-02-05 06:20:00,
2013-02-05 00:25:00,54.7,51.5,29.96,South,175,0.0,0.0,89,0.00,,,0.00,VWS V14.01,2013-02-05 06:25:00,
2013-02-05 00:30:00,54.7,51.8,29.96,South,175,0.0,0.0,90,0.00,,,0.00,VWS V14.01,2013-02-05 06:30:00,
2013-02-05 00:35:00,54.7,51.8,29.97,South,175,0.0,0.0,90,0.00,,,0.00,VWS V14.01,2013-02-05 06:35:00,
2013-02-05 00:40:00,54.7,51.8,29.97,South,175,0.0,0.0,90,0.00,,,0.00,VWS V14.01,2013-02-05 06:40:00,
2013-02-05 00:45:00,54.7,51.8,29.96,South,175,0.0,0.0,90,0.00,,,0.00,VWS V14.01,2013-02-05 06:45:00,
2013-02-05 00:50:00,54.7,51.8,29.97,South,175,0.0,0.0,90,0.01,,,0.01,VWS V14.01,2013-02-05 06:50:00,
2013-02-05 00:55:00,54.6,51.7,29.96,South,175,0.0,0.0,90,0.01,,,0.01,VWS V14.01,2013-02-05 06:55:00,
2013-02-05 01:00:00,54.6,51.7,29.97,South,175,0.0,0.0,90,0.01,,,0.01,VWS V14.01,2013-02-05 07:00:00,
2013-02-05 01:05:00,54.6,51.7,29.97,South,175,0.0,0.0,90,0.01,,,0.01,VWS V14.01,2013-02-05 07:05:00,
2013-02-05 01:10:00,54.5,51.6,29.97,South,175,0.0,0.0,90,0.01,,,0.01,VWS V14.01,2013-02-05 07:10:00,
2013-02-05 01:15:00,54.5,51.6,29.97,South,175,0.0,0.0,90,0.01,,,0.01,VWS V14.01,2013-02-05 07:15:00,
2013-02-05 01:20:00,54.4,51.5,29.97,South,175,0.0,0.0,90,0.01,,,0.01,VWS V14.01,2013-02-05 07:20:00,
2013-02-05 01:25:00,54.3,51.4,29.97,South,175,0.0,0.0,90,0.01,,,0.01,VWS V14.01,2013-02-05 07:25:00,
2013-02-05 01:30:00,54.3,51.4,29.96,South,175,0.0,0.0,90,0.01,,,0.01,VWS V14.01,2013-02-05 07:30:00,
2013-02-05 01:35:00,54.2,51.6,29.97,South,175,0.0,0.0,91,0.01,,,0.01,VWS V14.01,2013-02-05 07:35:00,
2013-02-05 01:40:00,54.2,51.6,29.97,South,175,0.0,0.0,91,0.01,,,0.01,VWS V14.01,2013-02-05 07:40:00,
2013-02-05 01:45:00,54.2,51.6,29.97,South,175,0.0,0.0,91,0.01,,,0.01,VWS V14.01,2013-02-05 07:45:00,
2013-02-05 01:50:00,54.2,51.6,29.97,South,175,0.0,0.0,91,0.00,,,0.01,VWS V14.01,2013-02-05 07:50:00,
2013-02-05 01:55:00,54.2,51.6,29.97,South,175,0.0,0.0,91,0.00,,,0.01,VWS V14.01,2013-02-05 07:55:00,
2013-02-05 02:00:00,54.1,51.5,29.96,South,175,0.0,0.0,91,0.01,,,0.02,VWS V14.01,2013-02-05 08:00:00,
2013-02-05 02:05:00,54.1,51.5,29.96,South,175,0.0,0.0,91,0.01,,,0.02,VWS V14.01,2013-02-05 08:05:00,
2013-02-05 02:10:00,54.1,51.5,29.96,South,175,0.0,0.0,91,0.02,,,0.03,VWS V14.01,2013-02-05 08:10:00,
2013-02-05 02:15:00,54.0,51.7,29.96,South,175,0.0,0.0,92,0.02,,,0.03,VWS V14.01,2013-02-05 08:15:00,
2013-02-05 02:20:00,54.0,51.4,29.96,South,175,0.0,0.0,91,0.03,,,0.04,VWS V14.01,2013-02-05 08:20:00,
2013-02-05 02:25:00,53.9,51.3,29.96,South,175,0.0,0.0,91,0.03,,,0.04,VWS V14.01,2013-02-05 08:25:00,
2013-02-05 02:30:00,53.9,51.6,29.96,South,175,0.0,0.0,92,0.03,,,0.04,VWS V14.01,2013-02-05 08:30:00,
2013-02-05 02:35:00,53.8,51.5,29.97,South,175,0.0,0.0,92,0.03,,,0.04,VWS V14.01,2013-02-05 08:35:00,
2013-02-05 02:40:00,53.8,51.5,29.96,South,175,0.0,0.0,92,0.03,,,0.04,VWS V14.01,2013-02-05 08:40:00,
2013-02-05 02:45:00,53.8,51.5,29.96,South,175,0.0,0.0,92,0.04,,,0.05,VWS V14.01,2013-02-05 08:45:00,
2013-02-05 02:50:00,53.8,51.5,29.97,South,175,0.0,0.0,92,0.04,,,0.05,VWS V14.01,2013-02-05 08:50:00,
2013-02-05 02:55:00,53.8,51.5,29.97,South,175,0.0,0.0,92,0.04,,,0.05,VWS V14.01,2013-02-05 08:55:00,
2013-02-05 03:00:00,53.8,51.5,29.97,South,175,0.0,0.0,92,0.04,,,0.05,VWS V14.01,2013-02-05 09:00:00,
2013-02-05 03:05:00,53.8,51.5,29.97,South,175,0.0,0.0,92,0.04,,,0.06,VWS V14.01,2013-02-05 09:05:00,
2013-02-05 03:10:00,53.8,51.8,29.97,South,175,0.0,0.0,93,0.03,,,0.06,VWS V14.01,2013-02-05 09:10:00,
2013-02-05 03:15:00,53.8,51.5,29.97,South,175,0.0,0.0,92,0.04,,,0.07,VWS V14.01,2013-02-05 09:15:00,
2013-02-05 03:20:00,53.8,51.5,29.97,South,175,0.0,0.0,92,0.03,,,0.07,VWS V14.01,2013-02-05 09:20:00,
2013-02-05 03:25:00,53.8,51.8,29.97,South,175,0.0,0.0,93,0.03,,,0.07,VWS V14.01,2013-02-05 09:25:00,
2013-02-05 03:30:00,53.8,51.8,29.97,South,175,0.0,0.0,93,0.04,,,0.08,VWS V14.01,2013-02-05 09:30:00,
2013-02-05 03:35:00,53.7,51.7,29.97,South,175,0.0,0.0,93,0.04,,,0.08,VWS V14.01,2013-02-05 09:35:00,
2013-02-05 03:40:00,53.7,51.7,29.97,South,175,0.0,0.0,93,0.04,,,0.08,VWS V14.01,2013-02-05 09:40:00,
2013-02-05 03:45:00,53.7,51.7,29.96,South,175,0.0,0.0,93,0.03,,,0.08,VWS V14.01,2013-02-05 09:45:00,
2013-02-05 03:50:00,53.7,51.7,29.97,South,175,0.0,0.0,93,0.03,,,0.08,VWS V14.01,2013-02-05 09:50:00,
2013-02-05 03:55:00,53.7,51.7,29.97,South,175,0.0,0.0,93,0.03,,,0.08,VWS V14.01,2013-02-05 09:55:00,
2013-02-05 04:00:00,53.6,51.6,29.97,South,175,0.0,0.0,93,0.04,,,0.09,VWS V14.01,2013-02-05 10:00:00,
2013-02-05 04:05:00,53.6,51.6,29.97,South,175,0.0,0.0,93,0.03,,,0.09,VWS V14.01,2013-02-05 10:05:00,
2013-02-05 04:10:00,53.5,51.5,29.97,South,175,0.0,0.0,93,0.03,,,0.09,VWS V14.01,2013-02-05 10:10:00,
2013-02-05 04:15:00,53.5,51.8,29.97,South,175,0.0,0.0,94,0.02,,,0.09,VWS V14.01,2013-02-05 10:15:00,
2013-02-05 04:20:00,53.5,51.5,29.97,South,175,0.0,0.0,93,0.02,,,0.09,VWS V14.01,2013-02-05 10:20:00,
2013-02-05 04:25:00,53.5,51.5,29.96,South,175,0.0,0.0,93,0.02,,,0.09,VWS V14.01,2013-02-05 10:25:00,
2013-02-05 04:30:00,53.4,51.7,29.96,South,175,0.0,0.0,94,0.02,,,0.10,VWS V14.01,2013-02-05 10:30:00,
2013-02-05 04:35:00,53.4,51.4,29.96,South,175,0.0,0.0,93,0.02,,,0.10,VWS V14.01,2013-02-05 10:35:00,
2013-02-05 04:40:00,53.4,51.7,29.96,South,175,0.0,0.0,94,0.02,,,0.10,VWS V14.01,2013-02-05 10:40:00,
2013-02-05 04:45:00,53.3,51.6,29.96,South,175,0.0,0.0,94,0.02,,,0.10,VWS V14.01,2013-02-05 10:45:00,
2013-02-05 04:50:00,53.3,51.6,29.96,South,175,0.0,0.0,94,0.02,,,0.10,VWS V14.01,2013-02-05 10:50:00,
2013-02-05 04:55:00,53.3,51.3,29.96,South,175,0.0,0.0,93,0.02,,,0.10,VWS V14.01,2013-02-05 10:55:00,
2013-02-05 05:00:00,53.3,51.6,29.97,South,175,0.0,0.0,94,0.01,,,0.10,VWS V14.01,2013-02-05 11:00:00,
2013-02-05 05:05:00,53.3,51.6,29.97,South,175,0.0,0.0,94,0.02,,,0.11,VWS V14.01,2013-02-05 11:05:00,
2013-02-05 05:10:00,53.3,51.6,29.97,South,175,0.0,0.0,94,0.02,,,0.11,VWS V14.01,2013-02-05 11:10:00,
2013-02-05 05:15:00,53.2,51.5,29.96,South,175,0.0,0.0,94,0.02,,,0.11,VWS V14.01,2013-02-05 11:15:00,
2013-02-05 05:20:00,53.2,51.5,29.97,South,175,0.0,0.0,94,0.02,,,0.11,VWS V14.01,2013-02-05 11:20:00,
2013-02-05 05:25:00,53.2,51.5,29.97,South,175,0.0,0.0,94,0.03,,,0.12,VWS V14.01,2013-02-05 11:25:00,
2013-02-05 05:30:00,53.2,51.5,29.98,South,175,0.0,0.0,94,0.02,,,0.12,VWS V14.01,2013-02-05 11:30:00,
2013-02-05 05:35:00,53.1,51.4,29.98,South,175,0.0,0.0,94,0.02,,,0.12,VWS V14.01,2013-02-05 11:35:00,
2013-02-05 05:40:00,53.1,51.4,29.98,South,175,0.0,0.0,94,0.02,,,0.12,VWS V14.01,2013-02-05 11:40:00,
2013-02-05 05:45:00,53.1,51.4,29.98,South,175,0.0,0.0,94,0.03,,,0.13,VWS V14.01,2013-02-05 11:45:00,
2013-02-05 05:50:00,53.1,51.4,29.98,South,175,0.0,0.0,94,0.03,,,0.13,VWS V14.01,2013-02-05 11:50:00,
2013-02-05 05:55:00,53.1,51.4,29.99,South,175,0.0,0.0,94,0.03,,,0.13,VWS V14.01,2013-02-05 11:55:00,
2013-02-05 06:00:00,53.1,51.4,29.98,South,175,0.0,0.0,94,0.04,,,0.14,VWS V14.01,2013-02-05 12:00:00,
2013-02-05 06:05:00,53.1,51.4,29.98,South,175,0.0,0.0,94,0.03,,,0.14,VWS V14.01,2013-02-05 12:05:00,
2013-02-05 06:10:00,53.1,51.4,29.99,South,175,0.0,0.0,94,0.03,,,0.14,VWS V14.01,2013-02-05 12:10:00,
2013-02-05 06:15:00,53.1,51.4,30.00,South,175,0.0,0.0,94,0.03,,,0.14,VWS V14.01,2013-02-05 12:15:00,
2013-02-05 06:20:00,53.1,51.4,29.99,South,175,0.0,0.0,94,0.04,,,0.15,VWS V14.01,2013-02-05 12:20:00,
2013-02-05 06:25:00,53.1,51.7,29.99,South,175,0.0,0.0,95,0.03,,,0.15,VWS V14.01,2013-02-05 12:25:00,
2013-02-05 06:30:00,53.1,51.4,29.99,South,175,0.0,0.0,94,0.03,,,0.00,VWS V14.01,2013-02-05 12:30:00,
2013-02-05 06:35:00,53.1,51.4,29.99,South,175,0.0,0.0,94,0.03,,,0.15,VWS V14.01,2013-02-05 12:35:00,
2013-02-05 06:40:00,53.0,51.3,29.99,South,175,0.0,0.0,94,0.03,,,0.15,VWS V14.01,2013-02-05 12:40:00,
2013-02-05 06:45:00,53.0,51.6,30.00,South,175,0.0,0.0,95,0.03,,,0.16,VWS V14.01,2013-02-05 12:45:00,
2013-02-05 06:50:00,53.0,51.3,29.99,South,175,0.0,0.0,94,0.03,,,0.16,VWS V14.01,2013-02-05 12:50:00,
2013-02-05 06:55:00,53.0,51.3,29.99,South,175,0.0,0.0,94,0.03,,,0.16,VWS V14.01,2013-02-05 12:55:00,
2013-02-05 07:00:00,53.0,51.3,30.00,South,175,0.0,0.0,94,0.03,,,0.16,VWS V14.01,2013-02-05 13:00:00,
2013-02-05 07:05:00,53.1,51.4,30.00,South,175,0.0,0.0,94,0.02,,,0.16,VWS V14.01,2013-02-05 13:05:00,
2013-02-05 07:10:00,53.1,51.7,29.99,South,175,0.0,0.0,95,0.02,,,0.16,VWS V14.01,2013-02-05 13:10:00,
2013-02-05 07:15:00,53.2,51.5,30.00,South,175,0.0,0.0,94,0.02,,,0.16,VWS V14.01,2013-02-05 13:15:00,
2013-02-05 07:20:00,53.2,51.8,30.00,South,175,0.0,0.0,95,0.01,,,0.16,VWS V14.01,2013-02-05 13:20:00,
2013-02-05 07:25:00,53.3,51.9,30.00,South,175,0.0,0.0,95,0.01,,,0.16,VWS V14.01,2013-02-05 13:25:00,
2013-02-05 07:30:00,53.4,52.0,30.00,South,175,0.0,0.0,95,0.01,,,0.16,VWS V14.01,2013-02-05 13:30:00,
2013-02-05 07:35:00,53.5,52.1,30.00,South,175,0.0,1.0,95,0.01,,,0.16,VWS V14.01,2013-02-05 13:35:00,
2013-02-05 07:40:00,53.7,52.3,30.00,South,175,0.0,0.0,95,0.01,,,0.16,VWS V14.01,2013-02-05 13:40:00,
2013-02-05 07:45:00,53.8,52.4,30.00,South,175,0.0,0.0,95,0.00,,,0.16,VWS V14.01,2013-02-05 13:45:00,
2013-02-05 07:50:00,54.0,52.6,30.00,South,175,0.0,2.0,95,0.00,,,0.16,VWS V14.01,2013-02-05 13:50:00,
2013-02-05 07:55:00,54.1,52.7,30.00,South,175,0.0,0.0,95,0.00,,,0.16,VWS V14.01,2013-02-05 13:55:00,
2013-02-05 08:00:00,54.3,52.9,30.00,South,175,0.0,0.0,95,0.00,,,0.16,VWS V14.01,2013-02-05 14:00:00,
2013-02-05 08:05:00,54.4,53.0,30.00,South,175,0.0,0.0,95,0.00,,,0.16,VWS V14.01,2013-02-05 14:05:00,
2013-02-05 08:10:00,54.5,53.1,30.00,South,175,0.0,0.0,95,0.00,,,0.16,VWS V14.01,2013-02-05 14:10:00,
2013-02-05 08:15:00,54.5,53.1,30.00,South,175,0.0,0.0,95,0.00,,,0.16,VWS V14.01,2013-02-05 14:15:00,
2013-02-05 08:20:00,54.6,53.2,30.00,South,175,0.0,0.0,95,0.00,,,0.16,VWS V14.01,2013-02-05 14:20:00,
2013-02-05 08:25:00,54.6,53.2,30.00,South,175,0.0,0.0,95,0.00,,,0.16,VWS V14.01,2013-02-05 14:25:00,
2013-02-05 08:30:00,54.7,53.3,30.00,South,175,0.0,0.0,95,0.00,,,0.16,VWS V14.01,2013-02-05 14:30:00,
2013-02-05 08:35:00,54.8,53.4,30.01,South,175,0.0,0.0,95,0.00,,,0.16,VWS V14.01,2013-02-05 14:35:00,
2013-02-05 08:40:00,55.0,53.6,30.00,South,175,0.0,1.0,95,0.00,,,0.16,VWS V14.01,2013-02-05 14:40:00,
2013-02-05 08:45:00,55.0,53.6,30.01,South,175,0.0,0.0,95,0.00,,,0.16,VWS V14.01,2013-02-05 14:45:00,
2013-02-05 08:50:00,55.1,53.7,30.01,South,175,0.0,0.0,95,0.00,,,0.16,VWS V14.01,2013-02-05 14:50:00,
2013-02-05 08:55:00,55.3,53.9,30.01,SE,141,0.0,1.0,95,0.00,,,0.16,VWS V14.01,2013-02-05 14:55:00,
2013-02-05 09:00:00,55.4,54.0,30.01,SE,141,0.0,0.0,95,0.00,,,0.16,VWS V14.01,2013-02-05 15:00:00,
2013-02-05 09:05:00,55.6,54.2,30.01,SE,141,0.0,0.0,95,0.00,,,0.16,VWS V14.01,2013-02-05 15:05:00,
2013-02-05 09:10:00,55.9,54.5,30.01,SE,141,0.0,0.0,95,0.00,,,0.16,VWS V14.01,2013-02-05 15:10:00,
2013-02-05 09:15:00,56.1,54.7,30.01,SE,141,0.0,0.0,95,0.00,,,0.16,VWS V14.01,2013-02-05 15:15:00,
2013-02-05 09:20:00,56.3,54.9,30.01,SE,141,0.0,0.0,95,0.00,,,0.16,VWS V14.01,2013-02-05 15:20:00,
2013-02-05 09:25:00,56.4,55.0,30.01,SE,141,0.0,0.0,95,0.00,,,0.16,VWS V14.01,2013-02-05 15:25:00,
2013-02-05 09:30:00,56.5,55.1,30.01,SE,141,0.0,3.0,95,0.00,,,0.16,VWS V14.01,2013-02-05 15:30:00,
2013-02-05 09:35:00,56.6,55.2,30.02,SE,141,0.0,0.0,95,0.00,,,0.16,VWS V14.01,2013-02-05 15:35:00,
2013-02-05 09:40:00,56.7,55.3,30.02,SE,141,0.0,0.0,95,0.00,,,0.16,VWS V14.01,2013-02-05 15:40:00,
2013-02-05 09:45:00,56.8,55.4,30.02,SE,141,0.0,0.0,95,0.00,,,0.16,VWS V14.01,2013-02-05 15:45:00,
2013-02-05 09:50:00,56.9,55.5,30.02,SE,141,0.0,0.0,95,0.00,,,0.16,VWS V14.01,2013-02-05 15:50:00,
2013-02-05 09:55:00,57.0,55.6,30.02,SE,141,0.0,0.0,95,0.00,,,0.16,VWS V14.01,2013-02-05 15:55:00,
2013-02-05 10:00:00,57.1,55.7,30.02,SE,141,0.0,0.0,95,0.00,,,0.16,VWS V14.01,2013-02-05 16:00:00,
2013-02-05 10:05:00,57.2,55.8,30.01,SE,141,0.0,0.0,95,0.00,,,0.16,VWS V14.01,2013-02-05 16:05:00,
2013-02-05 10:10:00,57.3,55.9,30.01,SE,141,0.0,0.0,95,0.00,,,0.16,VWS V14.01,2013-02-05 16:10:00,
2013-02-05 10:15:00,57.4,56.0,30.01,SE,141,0.0,0.0,95,0.00,,,0.16,VWS V14.01,2013-02-05 16:15:00,
2013-02-05 10:20:00,57.5,56.1,30.00,SE,141,0.0,0.0,95,0.00,,,0.16,VWS V14.01,2013-02-05 16:20:00,
2013-02-05 10:25:00,57.7,56.0,30.00,SE,141,0.0,1.0,94,0.00,,,0.16,VWS V14.01,2013-02-05 16:25:00,
2013-02-05 10:30:00,57.8,56.4,30.00,SE,139,0.0,0.0,95,0.00,,,0.16,VWS V14.01,2013-02-05 16:30:00,
2013-02-05 10:35:00,58.0,56.6,30.00,SE,139,0.0,0.0,95,0.00,,,0.16,VWS V14.01,2013-02-05 16:35:00,
2013-02-05 10:40:00,58.3,56.9,30.00,SE,139,0.0,0.0,95,0.00,,,0.16,VWS V14.01,2013-02-05 16:40:00,
2013-02-05 10:45:00,58.4,56.7,30.00,SE,139,0.0,0.0,94,0.00,,,0.16,VWS V14.01,2013-02-05 16:45:00,
2013-02-05 10:50:00,58.5,57.1,30.01,SE,139,0.0,0.0,95,0.00,,,0.16,VWS V14.01,2013-02-05 16:50:00,
2013-02-05 10:55:00,58.7,57.0,30.00,SE,139,0.0,0.0,94,0.00,,,0.16,VWS V14.01,2013-02-05 16:55:00,
2013-02-05 11:00:00,58.9,57.2,30.00,ESE,113,1.0,2.0,94,0.00,,,0.16,VWS V14.01,2013-02-05 17:00:00,
2013-02-05 11:05:00,59.0,57.3,30.00,ESE,113,0.0,0.0,94,0.00,,,0.16,VWS V14.01,2013-02-05 17:05:00,
2013-02-05 11:10:00,59.1,57.1,30.00,ESE,111,0.0,0.0,93,0.00,,,0.16,VWS V14.01,2013-02-05 17:10:00,
2013-02-05 11:15:00,59.3,57.6,30.00,ESE,110,0.0,0.0,94,0.00,,,0.16,VWS V14.01,2013-02-05 17:15:00,
2013-02-05 11:20:00,59.5,57.8,29.99,ESE,108,0.0,0.0,94,0.00,,,0.16,VWS V14.01,2013-02-05 17:20:00,
2013-02-05 11:25:00,59.6,57.6,30.00,ESE,106,0.0,2.0,93,0.00,,,0.16,VWS V14.01,2013-02-05 17:25:00,
2013-02-05 11:30:00,59.8,57.8,30.00,ESE,105,0.0,0.0,93,0.00,,,0.16,VWS V14.01,2013-02-05 17:30:00,
2013-02-05 11:35:00,60.0,57.7,29.99,ESE,105,0.0,0.0,92,0.00,,,0.16,VWS V14.01,2013-02-05 17:35:00,
2013-02-05 11:40:00,60.3,58.0,29.99,ESE,105,0.0,0.0,92,0.00,,,0.16,VWS V14.01,2013-02-05 17:40:00,
2013-02-05 11:45:00,60.7,58.1,29.99,ESE,105,0.0,0.0,91,0.00,,,0.16,VWS V14.01,2013-02-05 17:45:00,
2013-02-05 11:50:00,61.3,58.7,29.99,ESE,105,0.0,0.0,91,0.00,,,0.16,VWS V14.01,2013-02-05 17:50:00,
2013-02-05 11:55:00,61.8,58.8,29.99,ESE,104,0.0,0.0,90,0.00,,,0.16,VWS V14.01,2013-02-05 17:55:00,
2013-02-05 12:00:00,62.3,59.0,29.99,ESE,104,0.0,0.0,89,0.00,,,0.16,VWS V14.01,2013-02-05 18:00:00,
2013-02-05 12:05:00,62.9,59.3,29.98,NE,49,0.0,0.0,88,0.00,,,0.16,VWS V14.01,2013-02-05 18:05:00,
2013-02-05 12:10:00,63.6,59.7,29.98,East,79,0.0,3.0,87,0.00,,,0.16,VWS V14.01,2013-02-05 18:10:00,
2013-02-05 12:15:00,64.1,59.5,29.98,East,85,0.0,0.0,85,0.00,,,0.16,VWS V14.01,2013-02-05 18:15:00,
2013-02-05 12:20:00,64.6,59.7,29.98,East,92,0.0,1.0,84,0.00,,,0.16,VWS V14.01,2013-02-05 18:20:00,
2013-02-05 12:25:00,64.9,59.6,29.98,ESE,106,0.0,0.0,83,0.00,,,0.16,VWS V14.01,2013-02-05 18:25:00,
2013-02-05 12:30:00,64.9,58.9,29.97,ESE,106,0.0,0.0,81,0.00,,,0.16,VWS V14.01,2013-02-05 18:30:00,
2013-02-05 12:35:00,65.0,59.4,29.98,ESE,106,0.0,0.0,82,0.00,,,0.16,VWS V14.01,2013-02-05 18:35:00,
2013-02-05 12:40:00,65.0,59.4,29.97,ESE,106,0.0,0.0,82,0.00,,,0.16,VWS V14.01,2013-02-05 18:40:00,
2013-02-05 12:45:00,65.0,59.0,29.97,ESE,106,0.0,0.0,81,0.00,,,0.16,VWS V14.01,2013-02-05 18:45:00,
2013-02-05 12:50:00,65.1,58.8,29.97,ESE,106,0.0,0.0,80,0.00,,,0.16,VWS V14.01,2013-02-05 18:50:00,
2013-02-05 12:55:00,65.2,58.5,29.96,ESE,106,0.0,1.0,79,0.00,,,0.16,VWS V14.01,2013-02-05 18:55:00,
2013-02-05 13:00:00,65.3,58.3,29.97,ESE,106,0.0,0.0,78,0.00,,,0.16,VWS V14.01,2013-02-05 19:00:00,
2013-02-05 13:05:00,65.4,58.7,29.97,ESE,106,0.0,0.0,79,0.00,,,0.16,VWS V14.01,2013-02-05 19:05:00,
2013-02-05 13:10:00,65.4,58.4,29.97,ESE,106,0.0,0.0,78,0.00,,,0.16,VWS V14.01,2013-02-05 19:10:00,
2013-02-05 13:15:00,65.4,58.7,29.96,ESE,106,0.0,0.0,79,0.00,,,0.16,VWS V14.01,2013-02-05 19:15:00,
2013-02-05 13:20:00,65.3,58.6,29.96,ESE,106,0.0,1.0,79,0.00,,,0.16,VWS V14.01,2013-02-05 19:20:00,
2013-02-05 13:25:00,65.2,58.5,29.96,ESE,106,0.0,0.0,79,0.00,,,0.16,VWS V14.01,2013-02-05 19:25:00,
2013-02-05 13:30:00,65.2,58.5,29.96,ESE,106,0.0,0.0,79,0.00,,,0.16,VWS V14.01,2013-02-05 19:30:00,
2013-02-05 13:35:00,65.1,58.4,29.96,ESE,106,0.0,0.0,79,0.00,,,0.16,VWS V14.01,2013-02-05 19:35:00,
2013-02-05 13:40:00,65.3,59.3,29.96,ESE,105,0.0,4.0,81,0.00,,,0.16,VWS V14.01,2013-02-05 19:40:00,
2013-02-05 13:45:00,65.5,59.2,29.96,ESE,105,0.0,0.0,80,0.00,,,0.16,VWS V14.01,2013-02-05 19:45:00,
2013-02-05 13:50:00,65.5,59.2,29.96,ESE,105,0.0,3.0,80,0.00,,,0.16,VWS V14.01,2013-02-05 19:50:00,
2013-02-05 13:55:00,65.5,59.5,29.96,ESE,105,0.0,2.0,81,0.00,,,0.16,VWS V14.01,2013-02-05 19:55:00,
2013-02-05 14:00:00,65.7,59.7,29.96,ESE,105,0.0,0.0,81,0.00,,,0.16,VWS V14.01,2013-02-05 20:00:00,
2013-02-05 14:05:00,66.3,60.0,29.95,ESE,105,0.0,0.0,80,0.00,,,0.16,VWS V14.01,2013-02-05 20:05:00,
2013-02-05 14:10:00,66.5,59.8,29.96,ESE,106,0.0,0.0,79,0.00,,,0.16,VWS V14.01,2013-02-05 20:10:00,
2013-02-05 14:15:00,66.5,59.8,29.96,ESE,106,0.0,0.0,79,0.00,,,0.16,VWS V14.01,2013-02-05 20:15:00,
2013-02-05 14:20:00,66.5,59.8,29.96,ESE,106,0.0,1.0,79,0.00,,,0.16,VWS V14.01,2013-02-05 20:20:00,
2013-02-05 14:25:00,66.5,59.8,29.95,ESE,106,0.0,0.0,79,0.00,,,0.16,VWS V14.01,2013-02-05 20:25:00,
2013-02-05 14:30:00,66.3,60.0,29.95,ESE,106,0.0,0.0,80,0.00,,,0.16,VWS V14.01,2013-02-05 20:30:00,
2013-02-05 14:35:00,66.1,59.8,29.96,ESE,104,0.0,1.0,80,0.00,,,0.16,VWS V14.01,2013-02-05 20:35:00,
2013-02-05 14:40:00,65.6,59.3,29.95,SE,136,0.0,0.0,80,0.00,,,0.16,VWS V14.01,2013-02-05 20:40:00,
2013-02-05 14:45:00,65.3,59.3,29.96,SE,139,0.0,0.0,81,0.00,,,0.16,VWS V14.01,2013-02-05 20:45:00,
2013-02-05 14:50:00,65.0,59.4,29.95,SE,139,0.0,0.0,82,0.00,,,0.16,VWS V14.01,2013-02-05 20:50:00,
2013-02-05 14:55:00,64.8,58.8,29.95,SE,139,0.0,0.0,81,0.00,,,0.16,VWS V14.01,2013-02-05 20:55:00,
2013-02-05 15:00:00,64.7,58.7,29.95,SE,138,0.0,2.0,81,0.00,,,0.16,VWS V14.01,2013-02-05 21:00:00,
2013-02-05 15:05:00,64.6,59.0,29.95,SE,138,0.0,0.0,82,0.00,,,0.16,VWS V14.01,2013-02-05 21:05:00,
2013-02-05 15:10:00,64.5,58.9,29.95,SE,139,0.0,0.0,82,0.00,,,0.16,VWS V14.01,2013-02-05 21:10:00,
2013-02-05 15:15:00,64.4,59.1,29.95,SE,137,0.0,0.0,83,0.00,,,0.16,VWS V14.01,2013-02-05 21:15:00,
2013-02-05 15:20:00,64.3,59.0,29.94,East,84,0.0,0.0,83,0.00,,,0.16,VWS V14.01,2013-02-05 21:20:00,
2013-02-05 15:25:00,64.2,59.3,29.95,East,87,0.0,0.0,84,0.00,,,0.16,VWS V14.01,2013-02-05 21:25:00,
2013-02-05 15:30:00,64.3,59.4,29.94,East,82,2.0,3.0,84,0.00,,,0.16,VWS V14.01,2013-02-05 21:30:00,
2013-02-05 15:35:00,64.5,59.2,29.94,East,88,0.0,0.0,83,0.00,,,0.16,VWS V14.01,2013-02-05 21:35:00,
2013-02-05 15:40:00,64.5,59.2,29.94,East,82,0.0,0.0,83,0.00,,,0.16,VWS V14.01,2013-02-05 21:40:00,
2013-02-05 15:45:00,64.7,59.4,29.95,East,88,0.0,0.0,83,0.00,,,0.16,VWS V14.01,2013-02-05 21:45:00,
2013-02-05 15:50:00,65.0,59.7,29.94,East,81,0.0,1.0,83,0.00,,,0.16,VWS V14.01,2013-02-05 21:50:00,
2013-02-05 15:55:00,65.2,59.6,29.94,East,82,0.0,0.0,82,0.00,,,0.16,VWS V14.01,2013-02-05 21:55:00,
2013-02-05 16:00:00,65.0,59.4,29.94,East,88,0.0,0.0,82,0.00,,,0.16,VWS V14.01,2013-02-05 22:00:00,
2013-02-05 16:05:00,64.8,59.2,29.94,East,88,0.0,0.0,82,0.00,,,0.16,VWS V14.01,2013-02-05 22:05:00,
2013-02-05 16:10:00,64.7,58.7,29.94,East,87,0.0,0.0,81,0.00,,,0.16,VWS V14.01,2013-02-05 22:10:00,
2013-02-05 16:15:00,64.4,58.8,29.94,East,95,4.0,4.0,82,0.00,,,0.16,VWS V14.01,2013-02-05 22:15:00,
2013-02-05 16:20:00,64.0,58.4,29.95,East,99,3.0,4.0,82,0.00,,,0.16,VWS V14.01,2013-02-05 22:20:00,
2013-02-05 16:25:00,63.6,58.3,29.94,East,92,0.0,0.0,83,0.00,,,0.16,VWS V14.01,2013-02-05 22:25:00,
2013-02-05 16:30:00,63.4,58.5,29.94,East,95,0.0,0.0,84,0.00,,,0.16,VWS V14.01,2013-02-05 22:30:00,
2013-02-05 16:35:00,63.2,58.3,29.95,East,89,0.0,2.0,84,0.00,,,0.16,VWS V14.01,2013-02-05 22:35:00,
2013-02-05 16:40:00,63.0,58.4,29.94,East,80,2.0,5.0,85,0.00,,,0.16,VWS V14.01,2013-02-05 22:40:00,
2013-02-05 16:45:00,62.9,58.3,29.94,East,82,0.0,0.0,85,0.00,,,0.16,VWS V14.01,2013-02-05 22:45:00,
2013-02-05 16:50:00,62.7,58.1,29.95,East,82,0.0,0.0,85,0.00,,,0.16,VWS V14.01,2013-02-05 22:50:00,
2013-02-05 16:55:00,62.7,58.5,29.95,East,81,2.0,2.0,86,0.00,,,0.16,VWS V14.01,2013-02-05 22:55:00,
2013-02-05 17:00:00,62.5,58.3,29.95,East,82,0.0,0.0,86,0.00,,,0.16,VWS V14.01,2013-02-05 23:00:00,
2013-02-05 17:05:00,62.5,58.6,29.95,East,83,0.0,0.0,87,0.00,,,0.16,VWS V14.01,2013-02-05 23:05:00,
2013-02-05 17:10:00,62.4,58.5,29.95,East,83,0.0,0.0,87,0.00,,,0.16,VWS V14.01,2013-02-05 23:10:00,
2013-02-05 17:15:00,62.2,58.3,29.95,East,83,0.0,0.0,87,0.00,,,0.16,VWS V14.01,2013-02-05 23:15:00,
2013-02-05 17:20:00,62.1,58.2,29.96,East,83,0.0,0.0,87,0.00,,,0.16,VWS V14.01,2013-02-05 23:20:00,
2013-02-05 17:25:00,62.0,58.1,29.96,East,83,0.0,0.0,87,0.00,,,0.16,VWS V14.01,2013-02-05 23:25:00,
2013-02-05 17:30:00,61.9,58.3,29.96,East,83,0.0,0.0,88,0.00,,,0.16,VWS V14.01,2013-02-05 23:30:00,
2013-02-05 17:35:00,61.8,58.2,29.96,East,82,0.0,0.0,88,0.00,,,0.16,VWS V14.01,2013-02-05 23:35:00,
2013-02-05 17:40:00,61.6,58.3,29.95,East,82,2.0,2.0,89,0.00,,,0.16,VWS V14.01,2013-02-05 23:40:00,
2013-02-05 17:45:00,61.5,58.2,29.96,East,82,1.0,4.0,89,0.00,,,0.16,VWS V14.01,2013-02-05 23:45:00,
2013-02-05 17:50:00,61.4,58.1,29.95,East,82,0.0,0.0,89,0.00,,,0.16,VWS V14.01,2013-02-05 23:50:00,
2013-02-05 17:55:00,61.3,58.0,29.96,East,81,2.0,4.0,89,0.00,,,0.16,VWS V14.01,2013-02-05 23:55:00,
2013-02-05 18:00:00,61.2,57.9,29.96,East,81,0.0,0.0,89,0.00,,,0.16,VWS V14.01,2013-02-06 00:00:00,
2013-02-05 18:05:00,61.1,57.8,29.96,East,81,1.0,4.0,89,0.00,,,0.16,VWS V14.01,2013-02-06 00:05:00,
2013-02-05 18:10:00,61.1,57.8,29.97,East,81,1.0,1.0,89,0.00,,,0.16,VWS V14.01,2013-02-06 00:10:00,
2013-02-05 18:15:00,61.0,58.0,29.97,East,80,4.0,6.0,90,0.00,,,0.16,VWS V14.01,2013-02-06 00:15:00,
2013-02-05 18:20:00,60.9,58.0,29.96,East,80,0.0,0.0,90,0.00,,,0.16,VWS V14.01,2013-02-06 00:20:00,
2013-02-05 18:25:00,60.9,58.0,29.97,East,80,3.0,3.0,90,0.00,,,0.16,VWS V14.01,2013-02-06 00:25:00,
2013-02-05 18:30:00,60.8,57.8,29.98,East,80,0.0,3.0,90,0.00,,,0.16,VWS V14.01,2013-02-06 00:30:00,
2013-02-05 18:35:00,60.8,57.8,29.97,East,80,0.0,0.0,90,0.00,,,0.16,VWS V14.01,2013-02-06 00:35:00,
2013-02-05 18:40:00,60.8,57.8,29.97,East,80,0.0,2.0,90,0.00,,,0.16,VWS V14.01,2013-02-06 00:40:00,
2013-02-05 18:45:00,60.7,57.8,29.98,East,80,0.0,0.0,90,0.00,,,0.16,VWS V14.01,2013-02-06 00:45:00,
2013-02-05 18:50:00,60.7,57.8,29.98,East,80,0.0,0.0,90,0.00,,,0.16,VWS V14.01,2013-02-06 00:50:00,
2013-02-05 18:54:00,60.6,57.7,29.97,East,80,0.0,3.0,90,0.00,,,0.16,VWS V14.01,2013-02-06 00:54:00,
2013-02-05 19:00:00,60.6,57.7,29.98,East,80,0.0,0.0,90,0.00,,,0.16,VWS V14.01,2013-02-06 01:00:00,
2013-02-05 19:05:00,60.4,57.5,29.98,ENE,74,2.0,6.0,90,0.00,,,0.16,VWS V14.01,2013-02-06 01:05:00,
2013-02-05 19:10:00,60.4,57.8,29.97,ENE,74,0.0,2.0,91,0.00,,,0.16,VWS V14.01,2013-02-06 01:10:00,
2013-02-05 19:15:00,60.3,57.7,29.98,ENE,75,0.0,3.0,91,0.00,,,0.16,VWS V14.01,2013-02-06 01:15:00,
2013-02-05 19:20:00,60.2,57.3,29.98,ENE,71,0.0,4.0,90,0.00,,,0.16,VWS V14.01,2013-02-06 01:20:00,
2013-02-05 19:25:00,60.1,57.5,29.98,NE,52,0.0,0.0,91,0.00,,,0.16,VWS V14.01,2013-02-06 01:25:00,
2013-02-05 19:30:00,60.0,57.4,29.98,NE,53,0.0,0.0,91,0.00,,,0.16,VWS V14.01,2013-02-06 01:30:00,
2013-02-05 19:35:00,59.9,57.3,29.98,NE,52,0.0,3.0,91,0.00,,,0.16,VWS V14.01,2013-02-06 01:35:00,
2013-02-05 19:40:00,59.8,57.2,29.98,NE,52,0.0,2.0,91,0.00,,,0.16,VWS V14.01,2013-02-06 01:40:00,
2013-02-05 19:45:00,59.8,57.2,29.98,NE,53,0.0,0.0,91,0.00,,,0.16,VWS V14.01,2013-02-06 01:45:00,
2013-02-05 19:50:00,59.8,57.5,29.98,NE,52,3.0,5.0,92,0.00,,,0.16,VWS V14.01,2013-02-06 01:50:00,
2013-02-05 19:55:00,59.7,57.4,29.98,ENE,59,2.0,3.0,92,0.00,,,0.16,VWS V14.01,2013-02-06 01:55:00,
2013-02-05 20:00:00,59.6,57.0,29.98,ENE,58,4.0,4.0,91,0.00,,,0.16,VWS V14.01,2013-02-06 02:00:00,
2013-02-05 20:05:00,59.6,57.3,29.98,NE,56,0.0,0.0,92,0.00,,,0.16,VWS V14.01,2013-02-06 02:05:00,
2013-02-05 20:10:00,59.5,57.2,29.99,NE,56,0.0,0.0,92,0.00,,,0.16,VWS V14.01,2013-02-06 02:10:00,
2013-02-05 20:15:00,59.3,56.7,29.99,NE,56,0.0,0.0,91,0.00,,,0.16,VWS V14.01,2013-02-06 02:15:00,
2013-02-05 20:20:00,59.2,56.9,29.99,NE,56,0.0,0.0,92,0.00,,,0.16,VWS V14.01,2013-02-06 02:20:00,
2013-02-05 20:25:00,59.0,56.4,29.99,ENE,57,0.0,1.0,91,0.00,,,0.16,VWS V14.01,2013-02-06 02:25:00,
2013-02-05 20:30:00,58.7,56.4,29.99,ENE,58,0.0,0.0,92,0.00,,,0.16,VWS V14.01,2013-02-06 02:30:00,
2013-02-05 20:35:00,58.5,55.9,30.00,ENE,58,0.0,0.0,91,0.00,,,0.16,VWS V14.01,2013-02-06 02:35:00,
2013-02-05 20:40:00,58.3,55.7,30.00,ENE,58,0.0,0.0,91,0.00,,,0.16,VWS V14.01,2013-02-06 02:40:00,
2013-02-05 20:45:00,58.1,55.5,30.00,ENE,58,0.0,0.0,91,0.00,,,0.16,VWS V14.01,2013-02-06 02:45:00,
2013-02-05 20:50:00,58.0,55.4,29.99,ENE,58,0.0,0.0,91,0.00,,,0.16,VWS V14.01,2013-02-06 02:50:00,
2013-02-05 20:55:00,57.7,55.1,29.99,ENE,58,0.0,0.0,91,0.00,,,0.16,VWS V14.01,2013-02-06 02:55:00,
2013-02-05 21:00:00,57.4,54.8,30.00,ENE,58,0.0,0.0,91,0.00,,,0.16,VWS V14.01,2013-02-06 03:00:00,
2013-02-05 21:05:00,57.3,55.0,30.00,ENE,58,0.0,0.0,92,0.00,,,0.16,VWS V14.01,2013-02-06 03:05:00,
2013-02-05 21:10:00,57.0,54.4,30.00,ENE,58,0.0,0.0,91,0.00,,,0.16,VWS V14.01,2013-02-06 03:10:00,
2013-02-05 21:15:00,56.9,54.6,30.00,ENE,58,0.0,0.0,92,0.00,,,0.16,VWS V14.01,2013-02-06 03:15:00,
2013-02-05 21:20:00,56.8,54.5,30.00,ENE,58,0.0,0.0,92,0.00,,,0.16,VWS V14.01,2013-02-06 03:20:00,
2013-02-05 21:25:00,56.6,54.3,30.00,ENE,58,0.0,0.0,92,0.00,,,0.16,VWS V14.01,2013-02-06 03:25:00,
2013-02-05 21:30:00,56.6,54.6,30.00,ENE,58,0.0,0.0,93,0.00,,,0.16,VWS V14.01,2013-02-06 03:30:00,
2013-02-05 21:35:00,56.5,54.5,30.00,ENE,58,0.0,0.0,93,0.00,,,0.16,VWS V14.01,2013-02-06 03:35:00,
2013-02-05 21:40:00,56.6,54.6,30.00,ENE,58,0.0,0.0,93,0.00,,,0.16,VWS V14.01,2013-02-06 03:40:00,
2013-02-05 21:45:00,56.7,54.7,30.00,ENE,58,0.0,0.0,93,0.00,,,0.16,VWS V14.01,2013-02-06 03:45:00,
2013-02-05 21:50:00,56.5,54.8,30.00,ENE,58,0.0,0.0,94,0.00,,,0.16,VWS V14.01,2013-02-06 03:50:00,
2013-02-05 21:55:00,56.4,54.4,30.00,ENE,58,0.0,0.0,93,0.00,,,0.16,VWS V14.01,2013-02-06 03:55:00,
2013-02-05 22:00:00,56.3,54.3,30.00,ENE,58,0.0,0.0,93,0.00,,,0.16,VWS V14.01,2013-02-06 04:00:00,
2013-02-05 22:05:00,56.2,54.2,30.00,ENE,58,0.0,0.0,93,0.00,,,0.16,VWS V14.01,2013-02-06 04:05:00,
2013-02-05 22:10:00,56.1,54.4,30.00,ENE,58,0.0,0.0,94,0.00,,,0.16,VWS V14.01,2013-02-06 04:10:00,
2013-02-05 22:15:00,56.2,54.5,30.00,ENE,58,0.0,0.0,94,0.00,,,0.16,VWS V14.01,2013-02-06 04:15:00,
2013-02-05 22:20:00,56.2,54.5,30.00,ENE,58,0.0,0.0,94,0.00,,,0.16,VWS V14.01,2013-02-06 04:20:00,
2013-02-05 22:25:00,56.3,54.6,30.01,ENE,58,0.0,0.0,94,0.00,,,0.16,VWS V14.01,2013-02-06 04:25:00,
2013-02-05 22:30:00,56.4,54.7,30.01,ENE,58,0.0,0.0,94,0.00,,,0.16,VWS V14.01,2013-02-06 04:30:00,
2013-02-05 22:35:00,56.5,54.8,30.00,ENE,58,0.0,0.0,94,0.00,,,0.16,VWS V14.01,2013-02-06 04:35:00,
2013-02-05 22:40:00,56.5,54.8,30.01,ENE,58,0.0,0.0,94,0.00,,,0.16,VWS V14.01,2013-02-06 04:40:00,
2013-02-05 22:45:00,56.6,54.9,30.01,ENE,58,0.0,0.0,94,0.00,,,0.16,VWS V14.01,2013-02-06 04:45:00,
2013-02-05 22:50:00,56.6,54.9,30.01,ENE,58,0.0,0.0,94,0.00,,,0.16,VWS V14.01,2013-02-06 04:50:00,
2013-02-05 22:55:00,56.6,54.9,30.01,ENE,58,0.0,0.0,94,0.00,,,0.16,VWS V14.01,2013-02-06 04:55:00,
2013-02-05 23:00:00,56.5,54.8,30.01,ENE,58,0.0,0.0,94,0.00,,,0.16,VWS V14.01,2013-02-06 05:00:00,
2013-02-05 23:05:00,56.5,54.8,30.01,ENE,58,0.0,0.0,94,0.00,,,0.16,VWS V14.01,2013-02-06 05:05:00,
2013-02-05 23:10:00,56.6,54.9,30.00,ENE,58,0.0,0.0,94,0.00,,,0.16,VWS V14.01,2013-02-06 05:10:00,
2013-02-05 23:15:00,56.6,54.9,30.00,ENE,58,0.0,0.0,94,0.00,,,0.16,VWS V14.01,2013-02-06 05:15:00,
2013-02-05 23:20:00,56.6,54.9,30.01,ENE,58,0.0,0.0,94,0.00,,,0.16,VWS V14.01,2013-02-06 05:20:00,
2013-02-05 23:25:00,56.6,55.2,30.00,ENE,58,0.0,0.0,95,0.00,,,0.16,VWS V14.01,2013-02-06 05:25:00,
2013-02-05 23:30:00,56.6,54.9,30.01,ENE,58,0.0,0.0,94,0.00,,,0.16,VWS V14.01,2013-02-06 05:30:00,
2013-02-05 23:35:00,56.6,54.9,30.01,ENE,58,0.0,0.0,94,0.00,,,0.16,VWS V14.01,2013-02-06 05:35:00,
2013-02-05 23:40:00,56.5,55.1,30.01,ENE,58,0.0,0.0,95,0.00,,,0.16,VWS V14.01,2013-02-06 05:40:00,
2013-02-05 23:45:00,56.4,55.0,30.01,ENE,58,0.0,0.0,95,0.00,,,0.16,VWS V14.01,2013-02-06 05:45:00,
2013-02-05 23:50:00,56.4,54.7,30.01,ENE,58,0.0,0.0,94,0.00,,,0.16,VWS V14.01,2013-02-06 05:50:00,
2013-02-05 23:55:00,56.4,55.0,30.01,ENE,58,0.0,0.0,95,0.00,,,0.16,VWS V14.01,2013-02-06 05:55:00,